[[{"header":{"parameterUnit":"m.s-1","parameterCategory":1,"la1":30.2992,"la2":30.254,"lo1":-89.0895,"lo2":-89.0443,"dy":0.0025,"dx":0.0025,"nx":19,"ny":19,"refTime":"2026-05-02T21:00:00:Z","depth":0,"parameterNumber":2,"parameterNumberName":"U-component_of_WINDS"},"data":[0,0,0,-1.4045,-1.4047,-1.4136,-1.4136,-1.4263,-1.4264,0,0,0,0,0,0,0,0,0,0,0,-1.4027,-1.4028,-1.4045,-1.4047,-1.4136,-1.4136,-1.4262,-1.4264,0,0,0,0,0,0,0,0,0,0,0,-1.4026,-1.4027,-1.4029,-1.4048,-1.4135,-1.4136,-1.4262,-1.4191,0,0,0,0,0,0,0,0,0,0,-1.4103,-1.4093,-1.4027,-1.4029,-1.4048,-1.4135,-1.4136,-1.4187,-1.4195,-1.4228,0,-1.4259,0,-1.4263,-1.4273,-1.4274,0,0,0,-1.4042,-1.4086,-1.4103,-1.4029,-1.4049,-1.4135,-1.4094,-1.4191,-1.4201,-1.4239,-1.4261,-1.4265,-1.4265,-1.4274,-1.4275,-1.4482,-1.4483,0,0,-1.4037,-1.4047,-1.4097,-1.4109,-1.4096,-1.4091,-1.4097,-1.4197,-1.4221,-1.4261,-1.4268,-1.4268,-1.4275,-1.4276,-1.4481,-1.4482,0,0,0,-1.4027,-1.4044,-1.4058,-1.4104,-1.4119,-1.4094,-1.4101,-1.4217,-1.422,-1.4269,-1.4269,-1.4276,-1.4277,-1.4479,-1.4481,-1.4553,0,0,0,-1.4023,-1.4038,-1.4056,-1.4063,-1.4118,-1.4169,-1.4119,-1.4214,-1.4225,-1.4268,-1.4276,-1.4279,-1.4478,-1.448,-1.4548,-1.4586,0,0,0,-1.4018,-1.4037,-1.4052,-1.4063,-1.4101,-1.4167,-1.4176,-1.4216,-1.4225,-1.4274,-1.4279,-1.4477,-1.448,-1.4544,-1.4579,-1.4646,0,0,0,-1.4016,-1.4114,-1.4053,-1.4163,-1.4101,-1.421,-1.4176,-1.4256,-1.4306,-1.4276,-1.4478,-1.4481,-1.4542,-1.4575,-1.4641,-1.4706,-1.4733,0,0,-1.4146,-1.413,-1.4194,-1.4142,-1.4265,-1.4195,-1.4328,-1.4365,-1.436,-1.4442,-1.4447,-1.455,-1.4579,-1.4645,-1.4874,-1.4896,0,0,0,-1.4239,-1.4285,-1.4315,-1.4363,-1.4392,-1.4422,-1.4436,-1.445,-1.4518,-1.4404,-1.4589,-1.4606,-1.4645,-1.4676,-1.4694,-1.4727,-1.4495,-1.4494,-1.4494,-1.444,-1.4427,-1.4533,-1.4532,-1.4578,-1.4592,-1.4629,-1.465,-1.4624,-1.4668,-1.4694,-1.4834,-1.487,-1.4884,-1.4919,-1.4724,-1.4724,-1.4724,-1.4724,-1.4631,-1.4697,-1.4659,-1.4748,-1.4735,-1.481,-1.4826,-1.4805,-1.4874,-1.4814,-1.4847,-1.4786,-1.4908,-1.4938,-1.473,-1.4729,-1.4728,-1.4727,-1.4727,-1.4765,-1.4794,-1.4807,-1.4875,-1.4929,-1.4923,-1.4991,-1.4975,-1.4961,-1.4994,-1.5021,-1.5019,-1.5019,-1.5007,-1.5007,-1.5008,-1.5008,-1.5009,-1.5009,-1.49,-1.4912,-1.4971,-1.501,-1.5038,-1.5074,-1.5087,-1.5115,-1.5143,-1.5126,-1.5127,-1.5099,-1.4921,-1.4878,-1.5017,-1.5015,-1.5014,-1.5013,-1.5013,-1.5106,-1.5056,-1.5147,-1.5176,-1.522,-1.5275,-1.5253,-1.5311,-1.5332,-1.5366,-1.5329,-1.5199,-1.5183,-1.5168,-1.5134,-1.5329,-1.5329,-1.5329,-1.5329,-1.5221,-1.521,-1.53,-1.5347,-1.5391,-1.538,-1.5484,-1.5495,-1.5498,-1.5511,-1.5479,-1.543,-1.5415,-1.5408,-1.5388,-1.5356,-1.5604,-1.5604,-1.5604,-1.5348,-1.5341,-1.5433,-1.5435,-1.5467,-1.5496,-1.5595,-1.5651,-1.5644,-1.5615,-1.552,-1.5509,-1.543,-1.5404,-1.5378,-1.5347,-1.5287,0,0]},{"header":{"parameterUnit":"m.s-1","parameterCategory":1,"la1":30.2992,"la2":30.254,"lo1":-89.0895,"lo2":-89.0443,"dy":0.0025,"dx":0.0025,"nx":19,"ny":19,"refTime":"2026-05-02T21:00:00:Z","depth":0,"parameterNumber":3,"parameterNumberName":"V-component_of_WINDS"},"data":[0,0,0,-7.4321,-7.4325,-7.4519,-7.4519,-7.478,-7.4783,0,0,0,0,0,0,0,0,0,0,0,-7.4275,-7.4277,-7.4321,-7.4326,-7.4519,-7.4519,-7.478,-7.4783,0,0,0,0,0,0,0,0,0,0,0,-7.4274,-7.4276,-7.4279,-7.4327,-7.4519,-7.4519,-7.4779,-7.4628,0,0,0,0,0,0,0,0,0,0,-7.4437,-7.4406,-7.4276,-7.4279,-7.4328,-7.4518,-7.452,-7.462,-7.4637,-7.4699,0,-7.476,0,-7.4776,-7.4801,-7.4802,0,0,0,-7.4317,-7.4392,-7.4435,-7.4279,-7.433,-7.4518,-7.4429,-7.463,-7.4649,-7.4722,-7.4763,-7.4773,-7.478,-7.4803,-7.4804,-7.5201,-7.5203,0,0,-7.4306,-7.4314,-7.4422,-7.4448,-7.4422,-7.4423,-7.4435,-7.4641,-7.4686,-7.4764,-7.4778,-7.4784,-7.4805,-7.4807,-7.5199,-7.5201,0,0,0,-7.4281,-7.4307,-7.4345,-7.4438,-7.4471,-7.4429,-7.4443,-7.4676,-7.4688,-7.4781,-7.4788,-7.4806,-7.481,-7.5196,-7.52,-7.5323,0,0,0,-7.4275,-7.4293,-7.434,-7.4347,-7.4468,-7.4577,-7.4474,-7.4674,-7.4697,-7.4786,-7.4807,-7.4813,-7.5194,-7.5198,-7.5314,-7.538,0,0,0,-7.4258,-7.4291,-7.4323,-7.4347,-7.4431,-7.4573,-7.4597,-7.4678,-7.4701,-7.4802,-7.4813,-7.5192,-7.5197,-7.5307,-7.5367,-7.5489,0,0,0,-7.4242,-7.4427,-7.4325,-7.4534,-7.443,-7.4649,-7.4595,-7.4757,-7.4858,-7.4808,-7.5194,-7.5199,-7.5304,-7.5359,-7.5481,-7.5595,-7.5643,0,0,-7.448,-7.4456,-7.4578,-7.4493,-7.4733,-7.4619,-7.4876,-7.4959,-7.4958,-7.5119,-7.5129,-7.5317,-7.5366,-7.5487,-7.5905,-7.5943,0,0,0,-7.4656,-7.4745,-7.4806,-7.4906,-7.4976,-7.5041,-7.5084,-7.5115,-7.5252,-7.5044,-7.5393,-7.5421,-7.5492,-7.5546,-7.5579,-7.564,-7.5224,-7.5224,-7.5223,-7.5005,-7.4999,-7.5201,-7.5218,-7.5314,-7.5359,-7.5436,-7.5484,-7.5446,-7.5529,-7.5577,-7.5832,-7.5895,-7.592,-7.5983,-7.5635,-7.5635,-7.5636,-7.5636,-7.5355,-7.548,-7.5428,-7.5606,-7.5597,-7.5745,-7.5794,-7.5763,-7.5899,-7.5794,-7.5856,-7.5744,-7.5962,-7.6017,-7.5645,-7.5644,-7.5642,-7.5641,-7.5641,-7.5584,-7.5643,-7.568,-7.5824,-7.5935,-7.5944,-7.6079,-7.6064,-7.605,-7.6111,-7.6162,-7.616,-7.6157,-7.6136,-7.6137,-7.6138,-7.6139,-7.6139,-7.614,-7.5808,-7.5846,-7.5963,-7.6055,-7.6118,-7.6198,-7.6245,-7.6305,-7.6368,-7.6347,-7.6347,-7.6302,-7.5984,-7.5906,-7.6154,-7.6151,-7.6149,-7.6148,-7.6147,-7.6169,-7.6086,-7.6266,-7.633,-7.6437,-7.655,-7.6529,-7.6654,-7.6702,-7.6769,-7.671,-7.6478,-7.6451,-7.6425,-7.636,-7.671,-7.671,-7.671,-7.6711,-7.6364,-7.635,-7.6533,-7.6635,-7.6734,-7.6735,-7.6938,-7.6977,-7.7002,-7.7031,-7.6978,-7.689,-7.6864,-7.6852,-7.6817,-7.6757,-7.72,-7.7201,-7.7201,-7.6586,-7.6581,-7.6759,-7.6786,-7.6869,-7.6941,-7.7132,-7.725,-7.7261,-7.7221,-7.7054,-7.7033,-7.6891,-7.6845,-7.6802,-7.6747,-7.6636,0,0]}]]